Hourly Data Report for October 20, 2015

All times are specified in Local Standard Time (LST). Add 1 hour to adjust for Daylight Saving Time where and when it is observed.

PENTICTON A
BRITISH COLUMBIA

49°27'45.000" N
119°36'08.000" W
344.40 m
1126146
71889
YYF

Download Data

Hourly Data (October 2015)
Hourly Data Report for October 20, 2015
Temp Definition
°C
Dew Point Temp Definition
°C
Rel Hum Definition
%
Wind Dir Definition
10's deg

Wind Spd Definition
km/h
Visibility Definition
km
Stn Press Definition
kPa
Hmdx Definition


Wind Chill Definition


Weather Definition


TIME
00:00 Legend Double Dagger 10.4 7.3 81 3 13 24.1 97.83     LegendNANA
01:00 Legend Double Dagger 10.5 6.7 77 36 12 24.1 97.92     Mainly Clear
02:00 Legend Double Dagger 7.4 5.1 85 36 9 24.1 98.00     LegendNANA
03:00 Legend Double Dagger 6.9 5.2 89 35 14 24.1 98.11     LegendNANA
04:00 Legend Double Dagger 5.9 4.1 88 33 8 24.1 98.14     Mainly Clear
05:00 Legend Double Dagger 6.2 4.0 86 1 14 24.1 98.21     LegendNANA
06:00 Legend Double Dagger 4.5 3.2 91 35 8 24.1 98.25     LegendNANA
07:00 Legend Double Dagger 5.9 3.8 86 36 2 24.1 98.31     Clear
08:00 Legend Double Dagger 9.0 5.6 79 1 10 24.1 98.34     LegendNANA
09:00 Legend Double Dagger 11.4 6.0 69 1 10 24.1 98.34     LegendNANA
10:00 Legend Double Dagger 12.9 5.6 61 36 11 24.1 98.34     Clear
11:00 Legend Double Dagger 14.8 5.4 53 36 9 24.1 98.29     LegendNANA
12:00 Legend Double Dagger 15.1 5.1 51 1 13 24.1 98.28     LegendNANA
13:00 Legend Double Dagger 15.6 7.2 57 1 11 24.1 98.23     Mainly Clear
14:00 Legend Double Dagger 15.5 5.2 50 35 19 24.1 98.18     LegendNANA
15:00 Legend Double Dagger 16.1 5.2 48 36 13 24.1 98.16     LegendNANA
16:00 Legend Double Dagger 14.7 5.3 53 1 9 24.1 98.12     Mostly Cloudy
17:00 Legend Double Dagger 13.1 5.6 60 25 3 24.1 98.14     LegendNANA
18:00 Legend Double Dagger 8.5 4.7 77 2 10 24.1 98.20     LegendNANA
19:00 Legend Double Dagger 7.8 4.4 79 34 8 24.1 98.23     Mainly Clear
20:00 Legend Double Dagger 7.9 4.0 76 36 12 24.1 98.24     LegendNANA
21:00 Legend Double Dagger 6.6 3.2 79 8 4 24.1 98.23     LegendNANA
22:00 Legend Double Dagger 5.5 2.9 83 35 5 24.1 98.25     Mainly Clear
23:00 Legend Double Dagger 4.7 2.6 86 36 2 24.1 98.25     LegendNANA

Notes on Data Quality.

Legend

  • E = Estimated
  • M = Missing
  • NA = Not Available
  • ‡ = Partner data that is not subject to review by the National Climate Archives
Date modified: